| time (UTC) | temp C | wind direction | speed KPH | gust KPH | rain 1hr cm | rain 24hr cm | rain mn cm | humidity % | barometer mb |
| 20260506011536 | 19 | 286 | 9.7 | 25.7 | 0.00 | 6.50 | 0.00 | 60 | 1013.9 |
| 20260506010036 | 19 | 270 | 9.7 | 22.5 | 0.00 | 6.50 | 0.00 | 60 | 1013.8 |
| 20260506004535 | 19 | 261 | 12.9 | 37.0 | 0.00 | 6.50 | 0.00 | 59 | 1013.8 |
| 20260506003046 | 20 | 262 | 11.3 | 33.8 | 0.00 | 6.50 | 0.00 | 58 | 1013.7 |
| 20260506001534 | 20 | 263 | 12.9 | 33.8 | 0.00 | 6.50 | 0.00 | 58 | 1013.6 |
| 20260506000109 | 20 | 281 | 14.5 | 29.0 | 0.00 | 6.50 | 0.00 | 58 | 1013.7 |
| 20260505233121 | 21 | 287 | 14.5 | 30.6 | 0.00 | 6.50 | 0.00 | 56 | 1013.9 |
| 20260505233109 | 20 | 287 | 16.1 | 29.0 | 0.00 | 6.50 | 0.00 | 57 | 1013.9 |
| 20260505224537 | 20 | 287 | 19.3 | 41.8 | 0.00 | 6.50 | 0.00 | 57 | 1014.0 |
| 20260505223035 | 20 | 286 | 19.3 | 38.6 | 0.00 | 6.50 | 0.00 | 57 | 1014.1 |
| 20260505221533 | 20 | 289 | 17.7 | 38.6 | 0.00 | 6.50 | 0.00 | 57 | 1014.3 |
| 20260505220033 | 20 | 285 | 17.7 | 35.4 | 0.00 | 6.50 | 0.00 | 57 | 1014.4 |
| 20260505213143 | 20 | 291 | 22.5 | 41.8 | 0.00 | 6.50 | 0.00 | 57 | 1014.6 |
| 20260505211533 | 20 | 287 | 17.7 | 40.2 | 0.00 | 6.50 | 0.00 | 57 | 1014.6 |
| 20260505210148 | 20 | 284 | 17.7 | 41.8 | 0.00 | 6.50 | 0.00 | 58 | 1014.8 |
| 20260505204536 | 20 | 286 | 19.3 | 38.6 | 0.00 | 6.50 | 0.00 | 58 | 1014.9 |
| 20260505201534 | 18 | 285 | 20.9 | 41.8 | 0.00 | 6.50 | 0.00 | 59 | 1015.1 |
| 20260505200037 | 18 | 292 | 22.5 | 40.2 | 0.00 | 6.50 | 0.00 | 59 | 1015.2 |
| 20260505194531 | 18 | 291 | 20.9 | 40.2 | 0.00 | 6.50 | 0.00 | 59 | 1015.3 |
| 20260505193143 | 18 | 285 | 17.7 | 35.4 | 0.00 | 6.50 | 0.00 | 59 | 1015.4 |
| 20260505191534 | 18 | 288 | 20.9 | 43.5 | 0.00 | 6.50 | 0.00 | 60 | 1015.4 |
| 20260505184534 | 17 | 289 | 19.3 | 35.4 | 0.00 | 6.50 | 0.00 | 62 | 1015.6 |
| 20260505183035 | 17 | 290 | 19.3 | 38.6 | 0.00 | 6.50 | 0.00 | 63 | 1015.7 |
| 20260505181611 | 17 | 290 | 22.5 | 38.6 | 0.00 | 6.50 | 0.00 | 64 | 1015.8 |
| 20260505180149 | 17 | 289 | 19.3 | 38.6 | 0.00 | 6.50 | 0.00 | 65 | 1015.7 |
| 20260505173035 | 16 | 287 | 19.3 | 46.7 | 0.00 | 6.50 | 0.00 | 67 | 1015.7 |
| 20260505171649 | 16 | 287 | 17.7 | 38.6 | 0.00 | 6.50 | 0.00 | 67 | 1015.8 |
| 20260505170035 | 16 | 291 | 17.7 | 35.4 | 0.00 | 6.50 | 0.00 | 68 | 1015.8 |
| 20260505164531 | 16 | 279 | 16.1 | 35.4 | 0.00 | 6.50 | 0.00 | 69 | 1015.7 |
| 20260505163032 | 15 | 284 | 16.1 | 32.2 | 0.00 | 6.50 | 0.00 | 70 | 1015.6 |
| 20260505161543 | 15 | 288 | 16.1 | 35.4 | 0.00 | 6.50 | 0.00 | 71 | 1015.7 |
| 20260505153034 | 15 | 279 | 11.3 | 24.1 | 0.00 | 6.50 | 0.00 | 74 | 1015.8 |
| 20260505151536 | 14 | 264 | 12.9 | 27.4 | 0.00 | 6.50 | 0.00 | 76 | 1015.6 |
| 20260505150108 | 14 | 276 | 12.9 | 27.4 | 0.00 | 6.50 | 0.00 | 76 | 1015.6 |
| 20260505140109 | 13 | 281 | 11.3 | 22.5 | 0.00 | 6.50 | 0.00 | 80 | 1015.2 |
| 20260505130111 | 13 | 281 | 12.9 | 25.7 | 0.00 | 6.50 | 0.00 | 80 | 1014.7 |
| 20260505124535 | 13 | 281 | 12.9 | 27.4 | 0.00 | 6.50 | 0.00 | 80 | 1014.6 |
| 20260505123031 | 13 | 282 | 14.5 | 29.0 | 0.00 | 6.50 | 0.00 | 78 | 1014.5 |
| 20260505121532 | 13 | 284 | 12.9 | 29.0 | 0.00 | 6.50 | 0.00 | 78 | 1014.4 |
| 20260505120035 | 13 | 287 | 12.9 | 29.0 | 0.00 | 6.50 | 0.00 | 78 | 1014.3 |
| 20260505114534 | 13 | 285 | 11.3 | 24.1 | 0.00 | 6.50 | 0.00 | 78 | 1014.2 |
| 20260505113033 | 13 | 289 | 12.9 | 29.0 | 0.00 | 6.50 | 0.00 | 77 | 1014.2 |
| 20260505111536 | 14 | 286 | 14.5 | 37.0 | 0.00 | 6.50 | 0.00 | 77 | 1014.1 |
| 20260505101608 | 14 | 284 | 14.5 | 30.6 | 0.00 | 6.50 | 0.00 | 76 | 1013.7 |
| 20260505094642 | 15 | 280 | 14.5 | 30.6 | 0.00 | 6.50 | 0.00 | 74 | 1013.5 |
| 20260505093034 | 15 | 282 | 19.3 | 40.2 | 0.00 | 6.50 | 0.00 | 74 | 1013.3 |
| 20260505091535 | 16 | 279 | 14.5 | 38.6 | 0.00 | 6.50 | 0.00 | 73 | 1013.3 |
| 20260505090035 | 16 | 273 | 12.9 | 27.4 | 0.00 | 6.50 | 0.00 | 72 | 1013.1 |
| 20260505084532 | 16 | 279 | 12.9 | 27.4 | 0.00 | 6.50 | 0.00 | 71 | 1013.0 |
| 20260505083033 | 16 | 273 | 14.5 | 27.4 | 0.00 | 6.50 | 0.00 | 71 | 1012.9 |
| 20260505081535 | 17 | 276 | 12.9 | 30.6 | 0.00 | 6.50 | 0.00 | 71 | 1012.8 |
| 20260505080035 | 17 | 282 | 14.5 | 27.4 | 0.00 | 6.50 | 0.00 | 71 | 1012.8 |
| 20260505074535 | 17 | 275 | 16.1 | 30.6 | 0.00 | 6.50 | 0.00 | 71 | 1012.6 |
| 20260505073109 | 17 | 276 | 11.3 | 29.0 | 0.00 | 6.50 | 0.00 | 70 | 1012.6 |
| 20260505071537 | 18 | 279 | 14.5 | 33.8 | 0.00 | 6.50 | 0.00 | 69 | 1012.4 |
| 20260505070111 | 18 | 284 | 16.1 | 29.0 | 0.00 | 6.50 | 0.00 | 68 | 1012.2 |
| 20260505064533 | 18 | 284 | 12.9 | 24.1 | 0.00 | 6.50 | 6.50 | 65 | 1012.1 |
| 20260505063034 | 18 | 285 | 12.9 | 29.0 | 0.00 | 6.50 | 6.50 | 65 | 1012.0 |
| 20260505061535 | 19 | 282 | 9.7 | 19.3 | 0.00 | 6.50 | 6.50 | 65 | 1012.0 |
| 20260505054536 | 19 | 266 | 8.0 | 19.3 | 0.00 | 6.50 | 6.50 | 62 | 1011.9 |
| 20260505053037 | 20 | 274 | 8.0 | 24.1 | 0.00 | 6.50 | 6.50 | 61 | 1011.8 |
| 20260505051536 | 20 | 276 | 9.7 | 22.5 | 0.00 | 6.50 | 6.50 | 59 | 1011.7 |
| 20260505041610 | 20 | 277 | 8.0 | 17.7 | 0.00 | 6.50 | 6.50 | 55 | 1011.0 |
| 20260505040050 | 21 | 280 | 8.0 | 22.5 | 0.00 | 6.50 | 6.50 | 55 | 1010.8 |
| 20260505034534 | 21 | 280 | 8.0 | 17.7 | 6.50 | 6.50 | 6.50 | 54 | 1010.6 |
| 20260505033032 | 21 | 282 | 8.0 | 25.7 | 6.50 | 6.50 | 6.50 | 53 | 1010.4 |
| 20260505030038 | 22 | 273 | 12.9 | 939.9 | 6.50 | 6.50 | 0.00 | 50 | 1007.0 |
| 20260505024535 | 22 | 265 | 9.7 | 22.5 | 0.00 | 0.00 | 0.00 | 52 | 1009.8 |
| 20260505023036 | 22 | 263 | 11.3 | 30.6 | 0.00 | 0.00 | 0.00 | 52 | 1009.8 |
| 20260505021535 | 22 | 238 | 4.8 | 14.5 | 0.00 | 0.00 | 0.00 | 52 | 1009.8 |
| 20260505020036 | 22 | 234 | 8.0 | 22.5 | 0.00 | 0.00 | 0.00 | 51 | 1009.8 |
| 20260505014537 | 23 | 245 | 8.0 | 19.3 | 0.00 | 0.00 | 0.00 | 51 | 1009.8 |
| 20260505013036 | 23 | 238 | 11.3 | 27.4 | 0.00 | 0.00 | 0.00 | 50 | 1009.6 |